Lapse_Rate
1.1 1.3 0.7 0.8 0.7 0.6 0.8 0.6 0.6 0.5 0.1 -0.1 0.3 0.2 0.3 0.4 1.0 1.4 1.4 1.8 2.1 1.4 1.1 2.2 3.0 3.2 2.5 2.5 3.5 4.4 5.1 5.7 7.7 7.7 7.6 6.9 7.2 6.5 6.2 5.5 5.4 5.8 4.8
1.3 0.5 0.9 0.5 0.9 0.9 0.7 0.4 0.3 0.7 0.9 1.2 0.8 1.3 1.5 1.2 1.5 1.9 2.0 2.1 1.4 1.1 1.9 2.5 2.7 3.3 2.4 3.1 3.4 4.1 5.0 5.7 6.7 6.2 6.8 7.8 8.1 7.7 6.8 6.8 7.4 6.9 5.9
1.3 0.8 0.5 0.9 0.5 0.2 0.8 0.8 1.2 1.5 1.7 1.7 1.8 2.1 2.0 2.1 2.0 1.7 2.1 1.8 1.7 2.2 2.5 2.8 2.4 2.7 3.1 3.5 3.6 4.8 5.7 6.5 6.5 7.2 8.1 8.1 7.8 7.2 6.8 7.6 7.7 7.0 6.2
1.7 2.1 1.4 1.1 0.6 0.5 1.4 1.7 1.9 2.1 2.5 2.2 2.5 2.2 2.3 2.6 2.7 2.9 2.8 2.2 2.6 2.9 3.0 2.7 2.9 3.0 3.4 3.7 5.4 5.5 7.1 7.1 7.9 7.4 7.7 7.9 7.7 8.1 7.7 7.0 6.0 7.0 6.8
1.7 1.7 1.8 1.9 0.8 1.4 2.1 2.8 2.7 3.1 3.3 3.0 2.8 2.3 2.8 3.4 3.8 2.6 3.3 3.0 3.1 2.3 2.8 3.0 3.3 4.4 4.7 5.3 6.2 6.5 7.7 7.4 7.3 7.1 7.4 7.2 8.3 7.9 7.1 7.1 7.6 7.3 7.8
2.3 2.5 2.6 2.6 2.3 3.1 3.5 3.4 3.6 3.0 2.9 3.3 3.2 3.3 3.4 4.6 5.0 3.9 2.8 2.8 3.7 3.1 2.7 2.9 3.3 3.9 3.8 5.0 6.9 7.3 8.5 7.1 6.6 6.7 6.9 7.5 8.2 7.7 7.2 8.3 8.4 8.3 8.1
2.7 2.6 2.6 3.5 3.5 3.9 4.1 4.5 4.6 3.6 3.4 3.4 3.6 3.7 3.8 4.7 5.7 5.8 4.6 3.3 3.0 2.5 2.7 3.4 3.3 4.1 4.1 4.2 5.7 8.0 7.1 7.1 6.9 6.1 6.2 7.5 7.2 7.1 8.4 8.3 8.6 8.6 8.6
3.5 2.9 3.5 3.7 4.0 4.5 3.5 4.2 3.2 3.9 3.6 3.2 3.7 4.4 4.5 5.2 6.5 6.0 5.3 4.3 3.8 3.3 2.9 3.0 2.7 2.4 3.5 6.8 7.0 4.5 4.4 4.7 4.7 6.9 6.7 6.2 7.2 8.7 8.9 8.7 8.3 7.9 6.4
3.5 3.1 3.6 3.6 3.4 2.7 3.0 4.6 4.4 3.9 4.0 3.7 4.2 3.7 4.1 5.1 6.4 6.3 5.5 4.3 5.0 4.6 5.2 4.9 3.9 3.3 5.6 9.4 6.7 5.3 4.1 5.0 6.0 6.1 6.1 5.9 6.4 6.8 7.0 8.3 6.0 7.4 6.4
3.1 2.6 3.0 3.2 2.0 2.8 3.9 4.1 4.6 4.3 4.1 4.5 4.2 4.0 4.7 4.7 5.9 6.0 5.7 5.4 5.1 5.1 5.3 5.5 5.7 6.3 9.3 9.4 8.0 5.3 5.0 6.6 5.4 4.7 3.8 3.1 3.8 4.1 5.3 5.8 7.1 7.3 6.9
3.3 3.7 2.7 1.6 2.6 4.1 4.4 4.3 3.8 3.9 4.1 4.0 4.4 3.7 3.9 4.4 4.8 6.0 6.3 5.8 5.4 5.3 5.6 5.6 6.0 6.8 8.2 8.8 8.8 5.4 7.1 7.9 5.2 4.7 3.8 3.5 3.7 4.4 4.6 4.9 5.2 6.1 6.8
3.2 2.4 1.5 2.3 3.9 4.9 4.2 3.3 4.0 3.1 3.0 3.2 3.3 3.6 4.1 4.5 5.6 6.2 6.4 6.6 8.1 5.6 5.3 5.6 6.1 7.2 6.9 6.3 6.3 7.2 9.4 4.9 5.2 4.5 4.2 3.9 4.3 4.6 4.5 4.4 4.2 4.6 5.7
2.0 1.7 2.1 3.2 5.0 4.6 3.4 2.8 2.9 3.1 3.2 2.9 2.9 2.5 2.7 4.0 4.0 6.0 5.9 7.2 7.4 5.4 5.7 6.6 6.5 6.0 5.3 4.3 5.0 6.1 5.4 5.0 5.1 4.9 5.1 5.1 5.1 5.6 4.7 4.4 4.0 4.2 4.3
1.2 1.9 2.2 3.3 3.5 3.3 3.3 3.1 1.9 1.4 1.9 3.0 1.8 1.1 -0.3 1.6 2.3 2.7 3.3 3.4 7.5 5.6 4.1 4.1 3.2 5.0 2.6 2.6 3.8 5.0 5.4 6.1 6.2 6.1 5.8 5.6 6.1 5.6 4.7 5.1 4.5 4.2 4.3
0.9 1.1 2.2 2.7 1.3 1.1 1.3 1.5 1.9 -0.8 2.7 2.0 1.2 0.8 -1.1 -1.1 1.0 4.4 5.9 5.6 5.2 6.0 2.3 2.3 2.7 2.6 3.1 3.8 4.5 5.1 5.9 6.1 6.3 6.2 5.9 6.0 6.3 5.5 4.8 4.9 4.8 4.8 5.6
0.8 1.8 1.6 0.2 0.2 0.3 0.6 0.0 4.7 3.5 4.8 6.0 5.3 2.5 -0.8 5.1 7.4 8.9 9.5 8.2 8.5 8.1 4.2 3.5 2.3 1.5 2.6 4.3 4.9 5.4 5.6 6.2 6.8 6.7 6.2 6.4 6.4 5.9 5.4 4.5 5.0 5.4 6.0
0.7 0.6 -0.2 -0.3 -0.4 -0.5 1.2 2.2 1.4 2.8 6.6 7.8 8.2 7.9 7.4 6.6 8.5 9.2 9.4 9.4 7.9 7.0 4.2 3.1 0.8 0.6 1.7 4.0 5.0 5.6 5.7 6.2 6.4 6.0 5.9 6.3 6.4 6.1 5.6 5.0 5.2 5.4 5.1
0.7 -0.2 -0.5 -1.1 -0.5 -0.4 -0.3 -0.7 -0.4 1.2 -0.1 -0.1 3.1 5.7 8.5 8.5 8.7 8.7 8.7 6.6 3.5 3.4 2.8 2.9 2.1 2.3 2.8 4.1 4.4 4.7 4.9 5.1 4.9 5.1 5.1 5.7 5.7 6.0 5.2 4.9 5.2 5.2 5.4
-0.3 -1.4 -1.1 -1.3 -1.2 -1.6 -3.2 -3.2 -3.4 -3.8 -3.0 -2.1 -2.4 1.5 -0.3 7.7 8.3 8.2 8.0 1.5 1.3 1.9 2.4 2.3 1.1 2.2 2.6 2.8 2.4 2.2 2.9 3.6 3.8 3.9 4.5 5.0 5.1 5.2 4.3 4.6 4.9 4.5 5.0
-1.0 -1.6 -1.3 -1.6 -2.8 -3.4 -3.0 -2.6 -4.5 -4.0 -3.7 -3.4 -2.8 -1.0 -2.2 0.5 0.7 -0.3 -2.3 -2.9 -3.1 -0.5 0.3 1.5 2.2 1.1 0.5 0.6 -0.0 0.8 1.8 2.5 3.1 3.7 4.4 4.4 4.1 3.9 3.8 4.2 4.4 4.8 4.6
-1.7 -1.4 -1.1 -0.3 -0.0 -0.5 -1.4 -0.7 -1.2 -1.6 -1.8 -2.3 -0.9 -3.5 -1.7 0.6 0.7 -0.6 -0.3 -1.5 -1.0 0.6 0.9 0.9 -0.2 0.0 -0.1 -0.6 -0.2 1.0 1.2 1.5 2.4 3.5 3.5 3.4 2.8 2.4 3.3 4.0 4.4 4.4 4.7
-0.4 0.0 0.6 0.9 0.2 -0.2 0.0 0.0 -0.3 -0.1 -0.1 -1.1 -1.5 -1.6 -1.3 -2.9 -2.1 -0.8 -0.5 -1.0 0.5 0.6 1.2 1.8 1.2 -0.0 -1.0 -1.0 -1.0 -1.4 -0.3 0.7 2.3 2.7 2.5 1.9 1.7 2.1 2.9 3.7 3.8 3.8 4.0
0.1 0.2 0.6 0.4 0.2 -1.1 -1.5 -0.4 -0.4 -0.7 -0.7 -1.1 -1.7 -0.5 -1.4 -2.1 -2.7 -1.7 -1.3 -2.6 -0.9 -0.1 1.3 1.0 -1.7 -2.6 -0.6 -0.8 -0.8 -1.2 -0.7 1.2 2.3 1.8 1.1 0.6 0.9 1.9 2.9 3.4 3.6 3.4 4.1
0.5 -0.3 1.0 -0.5 -1.1 -0.6 -1.3 -1.8 -1.6 0.7 0.2 -0.8 -2.2 -2.2 -2.3 -2.7 -3.7 -3.8 -4.5 -4.2 -0.3 0.1 -0.1 -0.3 -1.5 -2.6 -2.2 -1.5 -0.9 -0.6 -0.5 0.5 1.0 0.9 -0.4 0.5 1.0 2.1 2.7 3.2 3.1 3.3 3.8
-1.1 -1.5 -0.1 0.3 0.2 -0.6 -0.8 0.5 0.4 -0.5 0.9 -0.6 -2.1 -1.8 -0.5 -3.5 -3.2 -4.5 -4.4 -4.2 -3.8 -4.8 -2.3 -0.9 -0.8 -1.2 -1.3 -1.5 -1.4 -0.9 -0.3 0.0 -0.2 -0.1 -0.6 0.5 1.1 1.6 2.3 2.7 2.7 3.2 3.4
-0.6 -0.3 -0.6 -0.7 -1.8 -2.3 -1.3 -0.3 1.3 2.0 0.6 -0.9 1.2 -0.2 -2.8 -2.6 -3.3 -5.5 -5.7 -5.4 -5.4 -4.9 -3.0 -1.2 -0.9 -1.0 -1.1 -1.3 -1.3 -0.8 -0.7 -0.9 -0.9 -0.6 -0.6 0.5 1.5 2.2 2.4 2.5 2.4 3.4 3.5
Wind_Speed
15 13 12 11 11 12 11 10 10 10 9 9 8 7 7 7 7 5 5 5 5 5 5 4 4 3 4 3 4 4 5 6 9 9 8 10 12 12 16 20 20 18 21
15 13 14 13 12 12 11 11 11 11 10 8 7 7 7 7 5 6 6 4 5 7 4 3 5 5 5 5 4 7 6 7 7 14 11 9 11 12 14 13 14 19 20
16 16 15 15 15 13 12 12 11 11 9 8 8 7 7 7 7 6 5 5 5 3 3 4 5 6 6 5 5 6 7 7 8 9 12 9 10 10 12 10 12 14 18
14 13 14 15 14 12 11 12 11 11 10 9 8 8 8 7 6 6 6 5 4 3 3 4 4 6 6 4 7 7 8 9 8 9 10 10 10 12 9 13 13 10 12
16 14 13 11 12 12 11 11 10 10 10 9 9 8 8 7 5 5 5 4 2 2 3 4 5 7 10 10 5 6 9 8 8 9 10 10 10 10 13 11 13 13 12
14 14 11 10 12 12 11 10 9 8 8 10 9 10 9 5 12 11 7 4 2 2 2 3 5 5 8 13 14 16 11 8 9 8 9 11 12 12 12 12 13 12 15
15 14 14 12 12 11 10 9 8 8 8 10 9 9 8 6 12 9 8 3 1 1 1 3 5 6 9 6 12 9 9 15 13 8 11 10 14 14 14 15 14 14 14
13 15 14 13 12 10 9 9 7 7 9 9 9 9 8 5 8 8 6 2 1 1 2 3 3 4 5 9 1 3 4 6 7 5 9 12 12 13 13 13 15 15 13
16 15 15 14 12 11 10 10 8 7 7 8 9 9 7 4 7 6 4 2 1 1 2 3 2 3 13 17 4 4 5 7 8 19 22 23 23 23 23 10 10 12 13
15 15 15 13 12 11 11 10 8 8 9 8 9 7 9 4 6 4 2 2 1 2 2 5 8 9 16 16 8 5 8 7 6 9 10 16 18 16 21 12 9 11 12
14 13 12 12 11 11 10 9 9 9 9 8 8 6 6 5 3 2 0 1 1 1 0 3 5 14 16 16 15 7 11 9 9 9 9 8 9 9 8 13 14 9 11
14 13 12 11 9 9 12 8 10 10 9 7 7 5 4 3 4 1 2 3 3 3 2 1 3 14 15 16 11 16 18 7 6 7 8 9 9 9 11 12 19 18 18
14 13 11 11 9 9 10 9 8 7 7 6 5 4 3 2 1 3 5 4 5 3 1 4 9 11 13 9 14 16 11 5 5 7 9 9 9 10 15 13 18 21 21
13 11 10 10 10 8 6 6 6 5 5 5 4 4 3 2 3 3 2 1 2 3 1 2 2 4 4 5 6 8 6 7 6 8 9 9 9 10 11 10 11 12 13
12 10 9 8 8 7 5 5 5 2 6 6 4 4 4 3 3 4 4 2 2 3 2 1 2 2 4 5 6 7 6 7 6 8 9 9 9 10 11 11 11 12 12
11 8 7 7 5 5 6 4 6 8 8 11 13 8 4 7 6 4 5 4 2 3 1 1 2 2 3 5 6 6 7 8 7 9 9 9 9 11 11 12 11 11 13
10 9 6 6 6 6 5 6 5 1 3 11 12 13 12 9 7 4 5 4 2 3 0 2 3 3 3 5 5 6 8 8 8 9 8 9 9 10 12 12 11 12 13
8 10 7 5 5 5 5 4 4 4 3 1 4 0 5 10 4 4 5 3 2 2 1 2 3 3 3 4 5 6 8 8 8 8 9 8 8 9 11 12 11 13 13
8 5 6 5 5 5 4 4 3 3 3 2 2 3 4 2 4 4 3 2 2 2 3 3 3 3 3 4 4 6 7 7 8 8 8 7 8 9 11 11 12 17 17
6 10 7 6 5 4 4 4 3 3 3 2 2 3 2 2 1 2 1 1 2 3 3 3 3 3 3 3 4 5 5 7 7 7 7 7 8 9 11 12 11 13 13
5 6 8 5 5 5 4 4 4 4 3 3 4 3 5 3 4 3 3 3 3 3 3 2 2 3 3 3 4 5 6 7 7 7 7 8 9 10 10 10 11 12 13
5 6 5 5 4 4 4 4 4 4 3 3 3 2 4 2 2 3 3 3 3 3 3 1 2 3 4 3 3 4 6 7 7 6 8 9 9 9 9 10 11 12 12
5 5 5 3 3 4 3 3 3 3 3 3 3 3 2 2 3 3 3 2 1 2 2 1 2 3 10 11 12 8 5 7 7 9 8 9 9 9 9 10 11 12 12
6 5 5 4 3 3 3 4 3 4 3 3 3 3 3 2 3 3 2 2 2 1 2 4 6 8 10 13 16 16 13 14 15 14 12 9 9 11 10 10 11 14 13
4 4 4 5 4 4 3 3 3 3 3 3 3 2 2 2 2 2 2 1 1 1 4 7 9 11 13 16 18 20 19 20 19 20 13 12 11 13 11 10 12 13 15
4 4 3 3 3 3 3 3 3 3 4 3 3 3 2 2 2 2 2 2 2 3 6 9 11 14 17 16 17 18 20 22 20 21 15 11 8 8 8 11 15 12 15
Wind_Direction
157 158 154 155 147 145 150 148 150 147 150 148 150 140 131 127 127 115 100 74 65 54 34 15 22 14 350 349 350 338 316 303 302 310 315 315 314 311 316 316 312 311 313
160 159 156 151 154 152 151 152 155 154 157 153 148 137 135 127 124 112 98 83 64 48 19 357 19 356 355 347 353 332 317 319 317 309 315 317 315 320 313 313 313 316 310
163 164 160 160 160 157 157 154 154 153 154 151 143 142 134 135 128 120 111 88 68 52 13 2 8 353 344 343 346 346 325 318 304 304 316 319 319 320 316 318 318 312 310
166 162 165 167 158 152 152 152 153 154 158 156 151 140 139 138 136 128 110 92 77 58 17 15 2 339 312 352 351 329 322 307 319 318 316 320 322 321 326 322 320 318 316
164 168 167 168 148 144 148 149 146 155 164 152 139 128 133 133 143 118 104 92 79 74 0 8 2 324 1 351 336 317 320 346 323 320 319 319 321 336 326 322 312 315 313
166 159 151 153 143 146 143 143 146 151 144 144 138 142 142 141 149 136 127 111 81 65 358 337 338 3 346 339 325 329 344 332 323 319 317 315 324 323 315 315 312 316 318
160 152 149 157 145 135 133 140 154 142 146 142 146 144 137 141 145 161 142 128 148 222 320 308 336 348 335 305 305 328 325 331 323 312 302 321 317 313 310 311 312 308 304
158 147 147 145 134 123 132 159 132 146 152 143 140 137 132 133 144 146 146 142 158 213 248 267 284 308 310 313 291 298 294 296 295 296 319 308 301 308 310 312 309 305 297
152 143 140 132 133 146 161 149 140 135 139 139 136 128 119 111 144 129 156 144 142 1 353 314 329 312 321 337 351 308 295 290 309 323 320 317 317 318 317 321 310 313 308
144 137 131 138 149 159 156 139 138 144 140 134 131 119 131 119 136 131 147 152 253 350 9 353 349 336 334 334 338 341 317 310 332 328 317 315 314 308 317 305 308 304 305
130 128 133 138 152 166 139 135 139 134 126 129 130 118 122 133 127 137 49 95 277 134 64 4 337 330 339 335 335 331 303 344 343 323 313 313 311 311 313 309 302 294 295
131 134 137 142 156 145 135 135 133 131 128 128 133 133 132 136 149 229 27 3 15 123 97 315 304 344 345 339 336 322 330 343 328 321 317 317 318 315 316 311 304 297 285
127 127 133 143 134 135 136 135 127 129 133 144 146 143 153 164 232 301 358 351 100 115 90 353 0 358 356 343 334 331 342 314 324 325 319 314 311 310 312 309 308 305 298
120 125 139 135 128 125 126 127 128 128 131 145 147 157 175 225 266 293 319 140 105 132 93 11 348 355 333 309 322 327 325 319 322 317 313 309 306 318 315 315 314 316 310
126 136 132 127 123 118 101 128 131 101 160 160 171 164 157 226 243 242 157 190 185 181 159 19 354 353 337 331 329 328 323 319 313 316 313 313 317 319 316 318 315 313 309
130 131 129 125 121 122 117 83 137 152 176 172 171 169 223 203 217 270 335 142 340 12 66 332 315 314 309 318 320 320 319 314 311 316 312 309 318 318 317 317 314 313 311
132 129 119 126 131 131 127 132 131 119 211 188 191 201 193 203 227 274 318 348 345 20 226 290 273 283 291 304 309 315 315 312 316 313 310 308 316 315 320 316 316 315 313
120 125 134 133 129 130 138 151 144 155 156 266 360 353 226 193 220 283 304 70 347 7 230 264 272 279 297 304 308 311 313 311 314 311 310 305 313 316 317 315 314 314 313
126 122 126 128 131 131 129 134 142 142 164 168 346 344 355 274 262 287 328 164 209 265 272 275 266 295 296 303 299 303 299 305 306 306 306 303 315 316 312 309 308 310 312
109 127 129 132 128 128 136 142 134 143 143 168 195 227 298 66 354 271 262 187 213 250 265 266 285 284 292 293 296 297 302 308 309 307 307 313 312 311 306 307 308 311 312
126 135 132 131 146 157 157 166 167 157 171 196 223 223 205 179 227 223 250 236 233 244 254 241 251 291 298 298 299 305 306 303 301 303 313 312 313 308 305 301 304 307 307
133 140 144 149 138 150 176 167 165 170 181 192 238 264 211 193 229 254 260 260 250 234 207 186 288 294 291 289 293 296 302 301 302 313 312 311 308 304 302 304 306 308 309
128 133 137 141 154 155 139 154 161 167 194 213 223 239 210 236 246 252 258 258 186 168 179 281 281 300 315 315 312 293 291 297 305 308 305 307 303 301 304 305 307 309 311
143 147 153 151 156 158 157 170 183 189 195 206 216 229 232 236 244 256 240 196 181 215 295 299 299 299 311 314 316 312 297 292 304 306 296 296 296 301 302 303 304 306 306
139 146 155 163 164 173 162 169 183 197 201 207 222 219 235 235 229 233 228 204 217 261 297 310 314 314 314 316 313 313 312 312 307 306 299 291 287 292 293 298 301 307 308
145 153 154 146 147 151 165 173 197 199 213 213 216 222 207 208 231 237 223 229 250 270 299 314 318 319 319 316 313 314 313 314 310 308 302 291 289 296 298 301 303 308 309